Home   Weather   Bayreuth   Past weeks

Flag for Germany Past Weather in Bayreuth, Bavaria, Germany — Yesterday and Last 2 Weeks

Now
55 °F

Mostly cloudy.


Feels Like: 54 °F
Forecast: 52 / 64 °F
Wind: 6 mph from West

Location: Grafenwoehr

Current Time: Jul 26, 2017 at 8:55:13 am

Latest Report: Jul 26, 2017 at 8:29 am


Visibility: N/A

Pressure: 29.61 "Hg

Humidity: 94%

Dew Point: 54 °F

Location of BayreuthLocation

Past Weather in Bayreuth — Graph

°F

Bayreuth Temperature Yesterday

Maximum temperature yesterday: 59 °F (at 3:58 pm)
Minimum temperature yesterday: 53 °F (at 12:58 am)
Average temperature yesterday: 55 °F

High & Low Weather Summary for the Past Weeks

 TemperatureHumidityPressure
High87 °F (Jul 19, 4:58 pm)100% (Jul 11, 7:36 am)30.29 "Hg (Jul 11, 7:36 am)
Low45 °F (Jul 16, 3:58 am)33% (Jul 19, 5:58 pm)29.58 "Hg (Jul 26, 6:31 am)
Average62 °F80%29.95 "Hg
* Reported Jul 11 7:36 am — Jul 26 7:29 am, Bayreuth. Weather by CustomWeather, © 2017

Note: Actual official high and low records may vary slightly from our data, if they occured in-between our weather recording intervals... More about our weather records

Advertising

Bayreuth Weather History for the Previous 24 Hours

Scroll right to see more
 ConditionsComfort  
Time TempWeatherWind HumidityBarometerVisibility
7:29 am
Wed, Jul 26
55 °FMostly cloudy.6 mph94%29.60 "HgN/A
7:24 am55 °FMostly cloudy.7 mph94%29.60 "HgN/A
7:02 am55 °FMostly cloudy.9 mph94%29.59 "HgN/A
6:31 am55 °FDrizzle. Fog.7 mph94%29.58 "Hg3 mi
6:20 am54 °FDrizzle. Fog.5 mph100%29.59 "Hg4 mi
6:00 am54 °FDrizzle. Fog.No wind100%29.59 "Hg2 mi
5:35 am54 °FLight rain. Fog.No wind100%29.59 "Hg3 mi
5:17 am54 °FMostly cloudy.No wind100%29.59 "HgN/A
5:06 am54 °FMostly cloudy.No wind100%29.59 "HgN/A
5:02 am54 °FMostly cloudy.No wind100%29.60 "HgN/A
4:29 am54 °FMostly cloudy.No wind100%29.59 "HgN/A
3:58 am54 °FOvercast.No wind100%29.59 "HgN/A
3:33 am54 °FPassing clouds.No wind94%29.61 "HgN/A
2:58 am54 °FMostly cloudy.No wind94%29.61 "HgN/A
1:58 am54 °FLight rain. Mostly cloudy.No wind97%29.62 "HgN/A
1:41 am54 °FLight rain. Mostly cloudy.No wind100%29.63 "HgN/A
1:31 am54 °FLight rain. Overcast.No wind94%29.63 "HgN/A
1:23 am54 °FLight rain. Overcast.No wind94%29.63 "HgN/A
1:06 am54 °FLight rain. Passing clouds.No wind94%29.64 "HgN/A
12:58 am54 °FLight rain. Mostly cloudy.No wind96%29.64 "HgN/A
12:43 am54 °FLight rain. Mostly cloudy.No wind94%29.65 "HgN/A
12:35 am54 °FLight rain. Low clouds.No wind94%29.65 "HgN/A
12:19 am54 °FLight rain. Passing clouds.No wind94%29.65 "HgN/A
11:58 pm
Tue, Jul 25
54 °FLight rain. Partly cloudy.5 mph94%29.65 "HgN/A
11:42 pm54 °FLight rain. Overcast.No wind94%29.66 "HgN/A
11:38 pm54 °FLight rain. Partly cloudy.5 mph94%29.66 "HgN/A
11:19 pm54 °FLight rain. Mostly cloudy.5 mph94%29.66 "HgN/A
10:58 pm54 °FLight rain. Mostly cloudy.6 mph95%29.67 "HgN/A
10:40 pm54 °FDrizzle. Mostly cloudy.7 mph94%29.67 "HgN/A
10:18 pm54 °FLight rain. Mostly cloudy.5 mph94%29.67 "HgN/A
9:58 pm54 °FLight rain. Mostly cloudy.5 mph94%29.68 "HgN/A
8:58 pm54 °FDrizzle. Low clouds.6 mph94%29.68 "HgN/A
7:59 pm55 °FDrizzle. Overcast.7 mph88%29.69 "HgN/A
7:34 pm55 °FMore clouds than sun.6 mph88%29.69 "HgN/A
7:12 pm57 °FDrizzle. Mostly cloudy.9 mph77%29.69 "HgN/A
6:44 pm57 °FBroken clouds.8 mph77%29.69 "HgN/A
6:18 pm57 °FCloudy.10 mph82%29.69 "HgN/A
6:02 pm57 °FCloudy.10 mph82%29.69 "HgN/A
5:44 pm57 °FCloudy.5 mph82%29.69 "HgN/A
4:58 pm59 °FCloudy.8 mph75%29.68 "HgN/A
4:07 pm59 °FCloudy.13 mph77%29.69 "HgN/A
3:58 pm59 °FCloudy.13 mph77%29.69 "HgN/A
2:59 pm57 °FDrizzle. Partly sunny.13 mph82%29.70 "HgN/A
2:36 pm57 °FDrizzle. Partly sunny.12 mph88%29.71 "HgN/A
1:58 pm55 °FLight rain. Cloudy.10 mph88%29.71 "HgN/A
12:58 pm55 °FDrizzle. Overcast.8 mph94%29.71 "HgN/A
12:36 pm55 °FLight rain. Low clouds.6 mph94%29.71 "HgN/A
11:58 am57 °FLight rain. Mostly cloudy.7 mph88%29.71 "HgN/A
11:26 am55 °FDrizzle. Mostly cloudy.9 mph88%29.71 "HgN/A
10:58 am55 °FDrizzle. Fog.10 mph88%29.71 "Hg6 mi
10:40 am55 °FDrizzle. Low clouds.8 mph88%29.70 "HgN/A
10:16 am55 °FOvercast.10 mph88%29.70 "HgN/A
9:58 am56 °FOvercast.8 mph83%29.70 "HgN/A
9:15 am55 °FMostly cloudy.8 mph82%29.71 "HgN/A
8:59 am55 °FMostly cloudy.8 mph82%29.71 "HgN/A
8:42 am55 °FMostly cloudy.6 mph82%29.71 "HgN/A
8:23 am55 °FMostly cloudy.7 mph82%29.72 "HgN/A
Weather by CustomWeather, © 2017

See weather overviewHow to use our weather pages